Theta_e
314 315 319 323 325 326 326 328 329 330 331 332 333 333 334 333 332 330 329 329 328 329 329 328 328 329 328 328 328 327 325 324 324 324 325 326 326 326 326 327 328 329 330 330 331 331 330 329 330 329 329 331 332 332 331 329 328 328 329 327 326 325 325 324 322 321 322 323 325 321 313 310 311 316 321 324 330 333 335 335 333 333 333 333 334
317 315 315 318 321 322 321 322 325 327 329 330 331 332 333 333 332 330 329 329 329 330 330 330 330 331 332 332 331 330 328 326 326 326 327 327 326 327 327 327 328 330 331 330 331 331 331 330 331 330 330 330 332 333 331 329 328 328 329 329 328 327 327 326 324 322 321 321 324 323 317 312 309 313 318 322 332 335 335 335 334 334 333 332 331
318 317 315 315 317 317 316 316 319 323 325 328 329 331 331 331 331 330 329 330 331 332 332 331 331 332 333 332 330 330 330 329 329 328 328 326 325 326 327 327 327 329 330 330 330 330 330 331 331 331 330 329 331 331 329 328 327 328 328 329 329 328 327 327 326 324 323 320 321 323 322 321 315 318 324 323 328 334 333 331 334 338 335 334 332
320 318 315 314 314 315 314 314 316 320 323 325 326 328 329 329 329 330 331 332 332 332 332 331 331 332 333 332 331 330 331 331 330 328 327 325 325 325 327 327 327 328 330 330 331 330 330 331 331 330 328 328 328 327 326 325 326 327 327 328 328 327 327 326 326 326 325 322 320 320 321 324 321 325 334 332 328 328 326 322 328 334 335 335 333
321 318 315 314 314 314 313 314 318 320 322 323 324 325 325 326 329 331 332 332 333 332 332 331 331 331 332 332 332 332 331 331 329 327 325 325 325 325 327 327 328 329 330 331 331 331 331 331 330 328 326 326 325 325 325 325 325 326 326 326 327 326 326 325 325 326 326 324 322 320 318 319 320 324 335 339 335 332 327 322 321 324 325 326 325
321 318 315 314 314 313 314 317 320 321 321 320 321 321 321 324 329 331 331 331 331 330 330 330 330 329 328 329 329 330 329 328 327 326 325 325 325 325 326 327 327 327 328 330 332 332 331 331 329 325 323 323 323 324 325 326 326 326 326 326 326 326 325 325 326 327 327 327 325 323 320 319 318 320 329 338 338 336 333 327 323 322 319 318 316
320 318 316 315 314 314 316 318 321 321 318 317 318 320 321 325 327 326 326 326 325 324 324 325 325 323 323 324 324 324 324 322 321 321 322 322 321 321 321 322 323 323 324 326 330 331 330 329 326 324 323 323 324 324 325 325 326 325 325 325 326 327 326 326 326 328 329 329 328 327 324 322 320 319 322 331 336 335 334 328 322 322 321 321 321
319 318 316 315 314 315 317 319 320 318 315 315 317 320 323 323 320 319 318 318 318 317 317 317 317 316 317 317 317 317 316 315 315 314 316 316 316 316 316 317 317 317 318 319 323 325 324 323 322 321 321 321 321 321 321 321 321 321 321 322 323 324 325 325 326 327 329 330 331 330 328 325 323 322 320 326 331 332 333 328 319 319 319 320 322
318 318 316 315 314 315 318 320 318 314 313 314 315 318 319 317 314 313 314 314 314 314 314 314 314 313 313 313 313 313 313 312 312 312 312 313 313 313 313 313 313 313 313 314 315 316 315 315 314 314 314 315 315 315 315 315 315 315 316 316 317 317 318 319 321 323 325 328 331 331 331 329 326 324 322 324 329 331 332 328 319 317 317 317 318
318 317 316 315 314 315 318 320 316 312 312 313 313 314 314 313 312 313 313 313 313 313 313 313 313 313 313 313 313 313 312 312 312 311 311 311 311 310 310 310 310 309 310 310 310 311 310 310 310 310 310 310 310 310 310 311 311 311 311 312 312 312 312 313 314 316 318 322 326 329 330 331 329 328 326 324 329 332 332 330 324 319 318 316 316
318 317 316 315 314 315 316 318 315 312 312 312 313 313 313 312 313 313 312 313 312 312 312 312 312 312 312 312 312 311 311 310 310 309 309 308 308 307 306 306 306 306 306 306 306 307 307 307 307 307 307 306 307 307 307 307 307 307 307 307 308 308 309 309 310 311 312 315 318 323 325 327 328 330 330 327 329 332 331 331 329 325 322 319 317
318 317 316 315 314 314 315 315 313 312 313 313 313 313 313 312 312 311 311 311 311 311 311 311 311 310 310 310 309 309 308 307 306 306 305 305 305 304 304 304 303 304 303 304 304 304 304 304 304 304 304 304 304 304 304 304 304 304 304 304 304 304 305 305 306 307 308 310 312 315 318 320 322 325 329 329 329 330 331 332 332 331 330 326 322
318 317 316 315 315 314 314 314 313 313 313 313 313 312 312 311 311 310 310 310 310 310 310 310 309 308 308 307 307 306 305 305 304 304 304 304 304 304 304 304 304 303 303 303 303 303 303 303 303 303 303 303 303 303 303 303 303 304 304 304 304 304 304 304 305 305 305 307 308 310 312 314 316 318 322 326 327 328 330 331 334 335 335 332 327
317 317 316 315 315 314 314 313 313 313 314 313 312 311 310 310 310 309 309 309 309 309 309 309 308 307 306 305 305 304 304 304 304 305 304 305 304 304 304 304 304 304 304 304 303 303 303 303 303 303 303 303 303 303 303 303 304 304 304 304 304 304 305 305 305 305 305 305 305 307 309 311 313 314 315 320 323 324 326 328 332 335 336 331 326
316 317 316 315 314 314 314 313 313 313 313 312 312 311 310 310 309 309 309 309 309 309 309 308 307 305 305 305 305 305 305 304 305 305 304 304 304 304 304 304 304 304 304 303 303 303 303 303 303 303 303 303 303 303 304 304 304 304 304 304 304 304 304 305 305 305 305 305 305 304 305 307 309 312 313 315 317 319 321 323 327 332 332 328 325
316 317 317 315 314 314 313 313 313 313 313 312 312 311 311 310 310 309 309 309 309 309 308 307 305 305 305 305 305 305 305 305 305 304 304 304 304 304 304 304 303 303 303 303 303 303 303 303 303 304 304 304 304 304 304 304 304 304 304 304 304 304 304 304 304 305 304 304 305 304 304 304 305 308 311 313 315 315 316 318 320 324 328 330 329
316 316 317 316 314 313 313 313 313 313 313 312 311 311 311 310 310 309 309 309 309 308 307 305 305 305 305 306 306 306 306 305 305 304 304 304 304 303 303 303 303 303 303 303 303 303 303 303 304 304 305 305 305 306 305 305 305 305 304 304 304 304 304 303 304 304 304 304 304 304 304 304 304 304 307 309 312 313 314 316 316 319 325 330 331
315 316 316 316 315 314 313 313 313 313 313 312 312 311 311 310 310 309 309 309 308 307 305 305 305 305 306 306 306 306 306 305 305 304 304 304 303 303 303 303 302 302 302 303 303 303 303 304 305 305 305 305 305 305 305 305 305 305 305 305 304 304 304 303 303 303 303 304 303 304 304 304 304 304 304 305 308 309 311 312 314 316 320 327 329
315 315 316 316 315 314 313 313 313 313 313 312 311 311 310 310 309 309 309 308 307 305 305 305 305 306 306 306 306 306 306 305 305 304 304 303 303 303 303 302 302 303 302 303 303 303 304 304 305 304 305 304 305 305 305 305 305 305 305 304 304 304 303 303 303 303 303 303 303 303 303 304 304 304 304 304 305 306 308 310 312 314 317 324 328
315 315 315 315 316 314 313 313 313 313 313 312 311 311 310 310 310 309 308 308 306 305 305 305 305 305 306 306 306 306 306 305 304 304 304 303 303 303 303 302 302 302 303 303 303 304 304 304 304 304 304 304 304 304 304 304 304 304 304 304 304 303 303 303 303 303 303 303 303 303 303 303 303 303 303 304 304 304 306 308 310 313 316 322 326
315 315 315 315 315 315 314 313 313 313 313 312 311 311 310 310 310 309 308 307 306 305 305 305 305 305 305 306 306 306 306 305 304 304 303 303 303 303 302 303 303 303 303 303 303 304 304 303 303 303 303 303 303 303 304 304 304 304 304 304 304 303 303 303 302 302 302 302 303 303 303 303 303 303 303 304 304 304 305 306 306 308 311 315 317
315 315 314 315 315 315 315 314 313 313 312 312 311 310 310 310 309 309 309 307 306 305 305 305 305 305 305 305 306 306 305 304 304 303 303 303 303 303 303 303 303 303 303 303 304 304 304 303 303 303 303 303 303 303 303 303 303 303 304 304 303 303 303 302 302 302 302 302 302 302 302 303 303 303 303 303 304 304 304 304 304 304 306 307 307
316 315 315 315 314 315 315 315 314 313 312 312 311 311 310 310 309 309 309 308 306 305 305 305 305 305 305 305 305 305 305 304 303 303 303 303 302 303 303 303 303 303 303 304 304 304 304 303 303 303 303 303 303 303 303 303 303 303 304 304 304 303 303 303 302 302 302 302 302 302 302 302 302 303 303 303 303 304 304 304 304 304 303 303 303
317 316 316 315 314 314 315 315 315 314 313 312 311 311 310 309 310 309 309 308 306 305 304 305 304 305 304 305 305 305 305 304 303 303 302 302 302 302 303 303 303 303 303 304 304 303 303 303 303 303 303 303 303 303 303 303 303 303 304 304 304 304 303 303 303 302 302 302 302 302 302 302 302 302 302 302 303 303 303 303 303 303 303 303 303
316 316 316 315 315 314 314 315 315 315 313 312 311 311 310 310 310 309 309 309 307 305 304 304 304 304 304 304 305 305 305 304 303 303 303 302 302 303 303 303 303 303 303 303 303 303 303 303 303 303 303 303 303 303 303 303 303 303 304 304 304 304 304 303 303 302 302 302 302 302 302 302 302 302 302 302 302 302 302 302 303 302 302 302 302
316 316 316 316 315 315 314 314 314 315 314 313 312 311 310 310 310 310 309 309 308 306 304 304 304 304 304 304 304 305 305 305 304 303 303 303 303 303 303 303 303 303 303 303 303 303 303 303 303 303 303 303 303 303 303 303 303 303 304 304 304 303 303 303 302 302 302 302 302 302 302 302 302 302 302 302 302 302 302 302 302 302 302 302 302
316 316 316 316 315 315 315 314 314 314 314 314 313 311 310 310 310 310 310 309 309 307 305 304 304 304 304 304 304 304 305 305 304 304 304 303 303 303 303 303 303 303 303 303 303 303 303 303 302 302 302 302 302 303 303 303 303 303 303 304 304 303 303 302 302 302 302 302 302 302 302 302 302 301 301 301 301 301 301 301 301 301 301 301 301
316 316 316 316 315 315 315 314 314 314 314 314 313 312 311 310 310 309 310 309 309 308 307 304 303 303 303 304 304 304 304 304 304 304 304 304 303 303 303 303 303 303 303 303 303 303 303 302 302 302 302 302 302 303 303 303 303 303 303 303 304 303 302 302 301 301 301 301 301 301 302 302 301 301 301 301 300 300 300 300 300 300 300 300 301
316 316 316 316 316 315 315 314 314 314 314 314 314 313 312 311 310 310 309 309 309 308 307 305 303 303 303 303 303 303 303 303 303 303 304 304 304 304 303 303 303 303 303 303 303 303 303 302 302 302 302 302 302 302 302 303 303 303 303 303 303 303 302 301 301 301 300 300 300 301 301 301 301 301 301 300 300 300 300 300 300 300 300 300 300
316 316 315 315 316 315 315 315 314 314 314 314 314 313 312 311 311 310 310 309 309 308 307 306 304 303 302 303 303 303 303 303 302 302 303 303 303 304 303 303 303 303 303 303 303 303 302 302 302 302 302 302 302 302 302 302 302 302 303 303 303 303 302 302 301 301 300 300 300 300 300 300 300 300 300 300 299 299 299 299 299 299 299 299 300
316 315 316 315 315 315 315 315 314 314 314 314 314 314 313 312 311 310 310 309 309 308 308 307 305 303 302 302 302 302 302 302 302 302 302 302 303 303 303 303 303 303 302 303 303 302 302 302 302 302 302 302 302 302 302 302 302 302 302 303 303 303 303 302 302 301 300 300 300 300 300 300 300 299 299 299 299 299 299 299 299 299 299 299 299
315 316 316 315 315 315 315 315 314 314 313 313 313 313 313 313 311 310 309 309 309 308 308 307 306 304 302 302 302 302 302 302 302 302 302 302 302 303 303 303 302 302 302 302 302 302 302 302 302 301 301 301 301 301 301 301 302 302 302 302 302 303 303 302 302 301 300 300 300 299 299 299 299 299 299 298 298 298 298 298 299 299 299 299 299
315 316 315 315 315 315 315 315 314 314 314 314 313 313 313 313 312 311 309 309 308 308 308 307 307 306 303 301 301 301 302 302 302 302 302 302 302 302 302 302 302 302 302 302 302 302 302 301 301 301 301 301 301 301 301 301 301 301 301 302 302 302 302 302 302 301 300 299 299 299 299 298 298 298 298 298 298 298 298 298 298 299 299 299 299
315 315 315 315 315 315 315 315 315 315 314 314 313 313 313 313 312 311 309 308 308 308 307 307 307 306 304 302 301 301 301 302 302 302 301 301 301 301 302 302 302 301 302 302 302 302 301 301 301 301 301 301 301 301 301 300 300 301 301 301 302 302 302 302 301 300 299 299 299 298 298 298 297 297 297 297 298 298 298 298 298 299 299 299 299
315 315 315 315 315 315 315 315 315 314 314 314 314 313 313 313 312 311 310 308 308 307 307 307 306 306 305 303 301 301 301 301 301 301 301 301 301 301 301 301 301 301 301 301 301 301 301 301 301 301 301 301 301 301 300 300 300 301 301 301 301 302 302 302 301 299 298 298 298 298 298 297 297 297 297 297 297 297 297 298 298 298 299 299 299
315 315 315 315 315 315 315 315 315 314 314 314 314 313 313 312 312 311 310 308 308 307 306 306 306 305 305 303 302 301 301 301 301 301 301 301 301 301 301 301 301 301 301 301 301 301 301 301 301 301 300 300 301 300 300 300 300 300 300 301 301 301 301 301 300 298 297 298 298 297 297 297 297 296 296 296 296 296 297 297 297 298 298 298 298
317 316 315 315 315 315 315 315 315 315 314 314 314 313 313 312 312 311 310 308 307 307 306 305 305 305 305 304 302 301 301 301 300 301 301 301 300 300 300 301 301 301 301 301 301 301 301 300 300 300 300 300 300 300 300 300 300 300 300 301 301 301 301 300 299 297 297 298 297 296 297 296 296 296 295 295 296 296 296 296 296 297 297 297 297
317 317 316 315 315 314 314 314 314 314 314 313 313 313 313 312 311 311 310 308 307 307 306 305 304 304 304 304 303 301 300 300 300 300 301 301 300 300 300 300 300 300 301 301 300 301 300 300 300 300 300 300 300 300 300 300 300 300 300 300 301 301 301 300 298 297 297 298 296 296 296 295 295 295 295 295 295 295 295 296 296 296 296 296 296
316 316 316 315 314 314 314 314 314 314 314 313 312 312 312 311 311 310 309 308 307 306 305 304 304 304 304 304 303 302 301 300 300 300 300 300 300 300 300 300 300 300 300 300 300 300 300 300 300 299 300 300 300 300 300 300 300 299 300 300 300 300 300 300 297 296 297 297 296 295 295 294 294 294 294 294 295 295 295 296 296 296 295 295 295
315 315 315 315 314 314 314 313 314 314 313 312 312 312 311 311 310 309 309 308 307 306 306 305 304 304 304 303 303 302 301 301 300 300 300 300 300 299 300 300 300 300 300 300 300 300 300 300 299 299 299 300 300 300 300 300 299 299 299 299 299 300 299 299 297 296 296 296 295 294 294 293 293 293 294 294 294 294 294 294 295 295 295 295 295
314 314 314 314 315 314 314 314 314 313 313 313 313 312 312 312 311 310 310 309 308 307 307 306 305 304 304 303 303 303 301 301 300 300 300 300 299 299 299 299 299 300 300 300 300 300 299 299 299 299 299 299 299 299 299 299 299 299 299 299 299 299 299 298 296 296 295 295 295 294 293 293 293 293 293 293 293 293 293 293 294 294 294 294 295
315 315 314 314 314 314 314 313 313 313 313 313 313 313 313 313 312 312 311 310 309 309 308 308 307 306 304 303 303 302 302 301 300 300 300 299 299 299 299 299 299 299 299 299 299 299 299 299 299 299 299 299 299 299 299 299 299 299 299 300 299 298 298 297 296 296 295 295 294 293 293 293 293 293 293 293 293 293 293 293 293 293 294 294 294
315 314 314 313 313 313 313 313 313 313 313 313 313 312 313 312 312 312 311 310 309 309 308 308 307 306 304 303 303 302 302 301 300 299 299 299 298 298 298 299 299 299 299 299 299 299 299 299 298 298 299 299 299 298 298 298 298 298 298 298 298 298 297 296 296 295 295 294 294 293 293 293 293 293 293 293 293 293 293 293 293 294 294 294 294
314 314 314 313 313 313 313 313 313 313 313 313 312 312 311 311 311 310 309 309 308 308 307 307 306 305 304 303 303 302 302 301 300 299 299 298 298 298 298 298 298 299 299 299 299 299 298 298 298 298 298 298 298 298 298 298 298 298 298 297 297 296 295 295 295 295 295 295 294 293 293 293 293 293 293 293 293 293 293 293 294 294 294 294 294
314 314 314 314 314 313 313 313 313 313 313 312 311 311 310 310 310 309 307 307 307 306 306 306 306 305 304 304 303 303 302 301 300 299 298 298 298 298 298 298 298 298 298 299 299 298 298 298 298 298 298 298 298 297 297 297 297 297 297 297 296 295 293 293 294 295 296 295 294 294 293 293 293 293 292 292 292 293 293 294 294 294 294 294 294
314 314 313 313 313 312 312 312 312 312 312 312 311 310 310 310 310 310 308 307 307 307 307 307 307 307 306 305 304 303 302 301 300 299 298 298 297 297 297 297 298 298 298 298 298 298 298 298 298 297 297 297 297 297 297 296 296 296 296 296 295 294 293 292 293 294 295 294 294 294 293 294 293 293 292 292 293 293 293 293 293 293 294 294 294
314 313 313 312 312 312 312 312 312 312 312 311 310 310 310 310 310 310 310 310 309 309 309 308 308 308 307 306 305 303 302 301 300 299 298 298 297 297 297 297 297 297 298 298 298 298 298 297 297 297 297 297 297 296 296 296 296 296 296 295 295 294 293 292 292 292 293 294 294 294 294 294 294 293 293 293 293 293 293 293 293 293 293 293 293
314 313 313 312 312 311 312 312 312 312 312 311 310 310 310 310 310 310 310 310 310 310 309 309 308 307 307 306 305 304 303 302 301 300 299 298 297 297 297 297 297 297 297 298 298 298 297 297 297 297 297 297 296 296 296 296 296 295 295 294 294 293 293 292 291 291 291 292 293 294 293 294 294 294 293 293 293 293 293 293 293 293 293 293 293
314 314 313 312 311 311 311 311 311 311 311 311 310 310 310 310 310 310 310 309 309 309 308 308 308 307 307 306 305 304 303 302 301 300 299 298 297 297 297 296 296 297 297 297 297 297 297 297 297 297 296 296 296 296 296 296 295 295 295 294 293 292 292 291 291 291 290 290 292 292 293 294 295 295 294 293 293 292 292 293 293 292 292 292 292
314 314 313 313 312 311 311 311 312 312 311 311 311 310 310 310 310 309 310 309 309 308 307 307 307 306 306 306 305 304 303 302 301 300 299 298 297 296 296 296 296 296 297 297 297 297 297 297 297 296 296 296 296 296 296 296 296 295 295 294 293 292 291 291 290 291 290 290 291 292 291 292 294 295 294 294 293 293 293 293 293 293 292 292 292
314 314 314 314 313 312 312 312 312 312 311 311 311 310 310 310 310 310 309 309 308 308 307 307 306 306 306 306 305 305 304 303 302 301 300 298 297 296 296 296 296 296 296 297 297 297 297 296 296 296 296 296 296 296 296 296 296 295 295 294 292 291 291 290 290 290 290 290 291 293 292 291 293 294 294 294 294 293 293 293 293 293 292 292 292
Wind_Speed
22 22 23 23 24 23 21 20 18 17 16 16 15 14 14 13 12 11 10 9 9 9 9 8 7 7 6 6 6 6 6 6 5 4 4 3 3 3 3 2 2 1 1 1 0 0 0 0 0 0 1 2 2 3 4 6 7 7 7 6 7 7 7 7 6 6 5 5 5 5 4 2 1 2 1 2 2 2 3 3 3 3 4 3 3
16 21 22 22 23 23 22 20 19 18 17 17 16 15 15 14 13 12 11 10 10 9 9 8 8 8 8 7 7 7 7 7 6 6 6 6 4 4 3 3 2 2 1 1 1 1 2 2 1 2 2 2 2 1 1 3 4 4 4 4 4 5 6 6 6 5 5 5 5 5 5 4 3 3 2 2 2 1 1 2 2 3 5 5 5
15 19 20 21 21 21 21 20 19 18 18 17 16 16 16 15 14 13 12 11 11 10 10 9 9 9 9 8 8 7 7 7 7 8 8 7 5 4 4 3 3 3 2 1 2 3 3 2 3 4 4 4 3 2 2 1 1 1 1 1 2 3 4 5 5 4 4 4 4 4 4 5 5 5 4 3 1 1 2 3 2 3 4 5 6
16 18 19 20 20 20 20 19 17 17 17 17 17 17 17 16 15 13 13 12 12 11 11 10 10 10 9 9 8 8 8 8 8 9 9 8 7 6 6 5 4 4 3 2 3 3 4 4 5 5 5 4 4 3 3 3 3 3 2 2 2 2 2 3 3 2 3 2 2 2 2 3 4 4 4 4 4 3 4 5 3 2 3 4 6
16 17 18 19 19 20 19 18 16 16 16 17 17 18 17 16 15 14 14 13 12 12 12 11 11 11 11 10 10 10 10 10 10 10 10 9 9 8 8 7 6 5 5 4 4 4 6 7 6 6 5 4 4 5 5 5 5 5 4 4 4 3 3 2 2 1 0 0 0 1 1 1 1 2 2 3 4 6 5 5 4 4 4 5 5
14 17 18 18 19 19 18 17 16 16 16 16 17 18 18 16 16 15 15 15 14 14 14 13 13 13 13 12 13 12 12 12 12 12 11 11 10 9 9 9 9 8 8 7 6 8 9 9 8 7 7 7 8 8 9 8 8 7 7 7 6 5 4 4 3 2 2 2 2 2 3 2 1 2 2 1 3 7 6 4 5 4 4 5 5
13 15 17 19 19 19 18 17 17 16 15 15 17 18 18 17 17 16 16 16 16 16 16 15 15 14 14 13 14 14 14 14 14 13 12 12 11 11 11 11 11 11 11 11 10 11 11 10 10 10 10 10 11 11 11 11 11 11 10 10 9 8 7 5 5 4 4 3 3 3 3 3 3 3 4 2 3 7 7 5 3 2 2 3 4
14 15 17 18 19 19 18 18 17 16 16 16 17 18 18 18 17 17 18 18 18 18 18 17 16 16 15 15 15 15 15 15 14 13 12 12 11 11 11 11 12 12 12 13 13 14 13 13 13 12 12 13 13 13 13 13 13 13 13 12 12 11 10 9 8 7 6 5 4 4 4 4 3 4 5 4 3 6 8 9 7 4 3 2 3
16 17 18 19 19 19 19 18 18 17 17 18 18 19 19 19 18 18 19 18 18 18 18 17 17 16 16 16 15 15 15 14 13 12 11 11 10 10 10 10 10 11 11 12 13 14 13 13 13 13 13 14 14 14 14 14 14 14 14 14 14 13 13 12 11 10 9 8 7 6 6 5 5 4 5 4 2 5 8 11 10 7 5 4 3
17 19 19 20 20 20 20 19 18 18 18 19 20 20 20 19 18 18 18 18 18 17 17 16 15 15 15 15 14 14 13 12 11 10 10 9 9 8 9 9 9 9 10 10 11 11 11 11 12 12 12 13 13 13 14 13 13 13 13 14 14 14 14 13 13 13 12 12 11 9 8 7 7 6 6 4 2 5 7 9 10 8 8 7 5
18 20 21 21 22 22 21 20 19 19 19 20 20 20 19 18 18 18 17 17 16 15 14 13 13 13 12 12 12 11 11 10 9 8 8 8 8 8 8 9 9 9 9 9 9 9 10 10 11 11 11 11 12 12 12 12 12 12 13 13 14 14 15 14 14 14 14 14 14 13 12 10 10 8 7 6 4 5 6 7 8 8 8 8 7
19 20 22 22 23 22 22 21 20 20 20 20 20 19 19 18 17 17 16 15 14 14 13 12 12 11 11 10 10 9 9 8 8 8 8 8 8 8 8 8 8 8 8 8 8 8 8 8 8 8 8 8 9 9 9 10 10 10 10 11 11 12 13 13 14 15 15 15 15 15 14 14 12 11 10 9 8 7 5 6 7 7 8 9 8
19 20 22 23 23 23 23 22 21 21 20 19 19 19 18 17 16 15 15 14 14 14 13 13 12 11 11 10 10 9 8 8 8 8 8 7 7 7 7 7 7 6 6 5 5 4 4 4 4 4 4 4 5 6 6 7 7 8 8 8 8 9 9 10 11 12 14 15 15 16 16 15 14 13 12 11 11 9 7 6 6 6 7 10 10
17 20 22 23 24 24 24 23 23 22 21 20 20 19 18 16 16 16 15 15 15 15 14 14 13 12 11 11 10 9 8 8 8 8 7 7 7 6 6 6 5 4 4 3 2 2 1 1 1 2 3 3 4 5 6 6 7 7 7 7 7 8 8 8 8 9 11 12 14 15 16 16 16 15 14 14 13 13 11 9 6 6 9 11 12
16 19 21 23 24 25 25 24 24 24 23 22 21 20 18 17 17 17 16 16 16 16 15 14 14 13 12 11 10 9 9 9 8 8 8 7 7 6 6 5 5 4 3 3 2 1 1 2 2 3 4 4 5 5 6 7 7 7 7 7 7 7 8 8 8 8 9 10 12 13 15 16 16 16 16 16 16 16 15 14 10 7 8 11 12
17 18 21 23 25 26 26 26 26 25 24 23 22 21 19 18 18 18 17 17 17 16 15 15 14 13 12 11 10 9 8 8 8 8 8 8 7 7 7 6 6 5 4 4 3 2 2 3 3 4 4 5 5 6 6 6 7 7 8 7 7 7 8 8 8 8 8 9 10 12 13 15 16 16 17 18 18 18 17 17 15 11 8 8 10
18 19 21 23 25 27 27 27 27 27 26 24 23 22 20 19 19 19 18 18 18 17 16 16 15 14 13 11 10 9 8 8 8 8 8 8 8 7 7 7 7 6 5 4 4 3 3 3 3 4 4 4 5 5 6 6 7 7 7 8 8 8 8 8 8 8 8 9 10 11 12 13 15 16 17 18 19 19 19 19 18 15 13 12 13
18 20 21 23 25 27 28 29 28 28 27 26 24 23 22 21 20 20 19 19 19 18 18 17 17 15 13 11 10 9 9 9 8 8 8 7 7 7 7 7 7 7 6 6 5 5 4 4 3 3 3 4 4 5 6 7 7 7 7 8 8 8 9 9 9 9 9 9 9 10 11 12 13 15 16 18 18 19 20 19 19 18 17 16 16
19 20 21 23 25 26 28 29 29 29 28 27 26 24 23 23 22 22 21 21 20 20 20 19 18 16 14 12 11 10 10 9 9 8 8 7 7 7 7 7 7 7 6 6 5 5 4 3 2 2 3 4 6 7 7 8 8 8 8 8 8 8 8 9 10 10 10 10 10 10 10 11 12 13 14 16 17 18 19 19 20 19 18 18 17
21 22 22 23 25 26 28 30 30 30 29 28 27 26 24 24 24 23 23 22 22 22 21 21 19 17 15 13 12 11 11 10 10 9 9 8 8 8 7 7 6 6 6 5 4 3 3 2 3 4 5 6 7 8 9 9 10 10 10 10 9 9 9 9 9 10 10 10 11 11 11 11 11 11 12 13 14 16 17 18 19 19 17 18 18
23 24 24 25 26 27 29 30 31 31 30 29 28 27 26 26 25 24 24 24 23 23 23 22 20 18 16 14 13 12 12 11 11 10 10 9 9 8 8 7 6 6 5 4 3 3 3 4 5 6 8 9 9 10 11 11 11 12 12 11 11 11 10 10 10 10 10 10 11 11 12 12 11 11 12 12 12 13 15 16 17 18 18 18 19
24 25 25 25 27 28 30 31 32 32 32 31 30 29 28 28 27 26 25 25 25 24 24 23 21 19 18 16 14 14 13 13 12 11 11 10 10 9 8 7 7 6 5 5 4 4 5 6 7 8 9 10 11 12 12 13 13 13 13 13 13 12 12 11 11 11 11 11 11 11 12 12 12 12 12 12 12 12 12 13 14 15 16 17 18
27 26 24 25 26 28 30 32 33 33 33 33 32 31 30 30 29 28 27 26 26 25 25 24 22 21 19 17 16 15 14 14 13 12 12 11 10 9 9 8 7 7 7 6 6 6 7 8 8 9 10 11 12 13 13 14 14 14 14 14 14 13 13 13 12 12 12 12 12 11 12 12 12 12 12 12 12 11 11 12 12 13 14 15 15
27 27 25 25 26 28 29 31 33 34 34 34 33 33 32 31 31 30 28 27 27 26 26 25 24 23 21 19 17 16 15 14 13 13 12 11 10 9 9 8 8 8 8 7 8 8 9 10 10 11 11 12 13 14 15 15 15 15 15 15 15 14 14 13 13 13 13 13 12 12 12 12 12 12 12 12 12 12 12 12 12 13 13 14 14
28 29 28 28 27 27 28 30 33 34 35 35 35 34 34 33 33 31 30 29 28 28 27 27 26 25 23 20 19 17 15 14 13 13 12 11 10 9 9 9 9 8 8 8 9 10 10 11 11 12 12 13 14 15 16 17 17 16 16 16 16 15 15 14 14 14 13 13 13 13 13 12 12 12 12 12 12 12 12 12 12 13 13 14 15
31 31 30 30 29 28 28 30 32 34 35 36 35 35 35 35 34 33 32 31 30 29 28 28 28 26 24 22 20 18 16 15 14 13 12 11 11 10 10 10 10 10 10 10 10 11 12 12 13 13 13 14 15 16 17 17 17 17 17 17 16 16 15 15 14 14 14 14 14 14 13 13 13 13 12 12 12 12 13 13 12 13 13 14 14
32 32 30 31 31 30 30 30 32 33 35 36 36 36 37 36 35 34 33 32 31 31 30 29 29 28 26 24 22 20 18 16 15 14 13 13 12 12 11 11 11 11 11 11 12 13 13 13 13 14 14 15 16 16 17 17 17 17 17 17 16 16 15 15 15 14 14 14 14 14 14 14 13 13 13 12 12 13 13 13 13 13 13 13 13
35 35 32 32 32 31 31 31 32 34 35 36 37 37 38 37 37 36 35 34 33 32 31 30 30 29 28 26 24 22 20 18 17 16 15 14 13 13 13 13 13 12 12 13 13 13 13 14 14 14 15 15 16 17 17 17 17 17 17 17 16 16 15 15 15 14 14 14 14 14 14 14 14 13 13 12 12 12 12 12 12 12 12 12 12
38 37 35 34 33 32 32 33 33 33 35 37 37 38 39 39 39 38 37 35 34 32 31 31 31 30 29 28 25 24 22 20 18 17 16 15 15 15 15 14 14 13 13 13 14 14 14 14 14 14 15 16 16 17 17 16 16 16 16 16 16 16 15 15 15 14 14 13 13 14 14 14 13 13 13 12 12 11 12 12 12 11 11 11 11
39 38 37 37 35 34 34 34 33 33 35 37 38 38 39 40 40 39 38 37 35 33 32 31 31 31 30 29 27 25 23 21 20 19 17 17 16 16 16 16 15 15 14 14 14 14 14 14 15 15 15 16 16 16 16 15 15 15 15 15 16 16 16 16 15 15 14 13 12 12 12 12 12 12 12 12 11 10 10 10 10 10 9 9 9
41 40 39 39 38 37 36 34 34 34 36 37 38 39 40 41 41 40 39 38 36 35 33 33 32 32 31 30 28 26 24 23 21 20 18 18 18 18 18 17 17 16 15 15 15 15 15 15 15 15 15 16 16 16 16 15 15 15 15 15 16 16 16 16 16 15 13 13 12 11 11 10 10 11 11 11 10 9 9 9 8 8 7 8 8
41 40 39 40 39 38 38 36 35 36 37 37 38 39 40 40 41 41 40 39 38 36 35 34 33 32 32 30 29 28 26 25 23 21 19 19 19 19 19 18 18 17 16 16 15 15 15 15 15 15 16 16 16 16 15 15 15 15 15 16 16 16 16 16 16 14 13 12 11 10 10 10 10 10 10 9 8 7 7 7 7 7 7 7 7
40 39 40 41 40 39 39 38 38 38 37 37 37 38 39 40 41 42 41 40 39 38 36 35 34 33 32 31 31 30 28 27 24 22 21 20 20 20 20 20 19 18 17 17 16 16 15 15 15 16 16 16 17 16 16 16 16 16 16 16 16 16 16 16 15 14 12 11 10 10 10 9 9 8 8 7 6 6 6 6 7 8 8 8 8
40 41 43 40 39 40 40 40 40 40 38 37 38 38 39 40 41 42 42 41 40 39 37 36 35 34 33 32 32 31 30 27 25 23 22 22 22 22 22 21 21 19 18 17 16 16 16 15 15 16 16 17 17 17 17 16 16 17 17 17 18 17 17 16 15 13 11 10 9 9 9 8 8 7 6 5 5 5 5 5 6 8 8 8 8
41 43 42 40 39 40 40 41 40 40 40 39 38 37 38 39 40 42 42 42 41 40 38 37 36 35 34 33 33 32 30 28 26 24 23 23 23 23 23 23 22 20 19 18 17 16 16 15 15 15 16 16 16 17 17 17 17 17 17 18 18 17 17 16 14 12 10 9 8 8 8 8 7 6 5 5 4 4 4 5 5 7 8 8 8
41 42 42 42 42 41 39 40 40 40 40 39 38 38 38 39 40 41 41 41 41 40 39 38 37 36 35 34 33 32 30 28 27 26 24 24 24 24 24 24 23 21 20 19 18 17 16 16 15 15 15 16 16 16 17 17 17 17 17 18 18 18 17 16 14 11 9 8 7 7 8 8 7 6 5 4 3 3 3 4 4 6 7 7 7
40 41 44 44 43 42 41 40 39 39 40 39 39 39 39 39 39 40 41 41 41 41 40 39 38 37 36 35 34 32 31 29 28 27 26 25 25 25 25 25 23 22 20 19 18 18 17 16 15 15 15 16 16 17 17 17 17 17 17 17 18 18 17 16 13 9 9 9 7 5 6 6 5 4 3 2 2 2 2 3 4 5 5 5 6
40 41 44 45 45 44 43 41 40 40 41 41 40 40 39 39 39 40 41 41 40 40 40 40 39 38 37 35 34 33 31 30 29 28 27 26 26 27 27 25 24 23 21 20 19 18 17 16 15 15 15 16 17 18 18 18 17 17 17 16 17 17 17 15 11 8 9 10 7 6 4 2 2 2 2 2 2 2 2 3 4 4 6 7 7
43 43 43 44 45 46 45 43 42 43 43 42 41 41 40 40 41 41 41 41 40 40 40 40 39 38 38 36 35 33 32 31 30 30 28 28 28 28 28 27 25 24 22 21 20 20 18 17 16 15 16 16 17 18 18 19 18 18 17 16 17 16 15 13 10 9 10 10 8 6 3 3 3 2 3 3 4 4 4 5 5 6 7 8 9
42 41 41 43 44 45 45 44 43 44 44 44 43 43 42 42 42 42 42 41 40 39 39 39 39 39 39 37 36 34 33 33 32 31 30 29 29 29 29 28 26 25 24 23 22 21 19 18 17 16 16 16 17 17 18 18 18 18 16 15 16 15 14 11 9 9 9 7 8 5 3 4 4 4 5 5 5 6 6 7 7 8 9 9 9
40 38 39 40 41 41 43 44 44 45 46 47 45 44 44 43 43 43 42 40 39 39 39 39 40 41 41 39 37 36 35 34 33 33 31 30 30 30 30 29 28 26 24 23 22 21 20 19 18 17 17 16 16 16 17 17 18 18 16 14 14 14 11 9 9 11 6 6 4 3 5 5 5 6 5 6 7 8 8 9 10 10 11 11 11
41 40 39 38 38 39 41 42 44 46 47 47 47 45 44 42 42 40 39 38 37 38 38 39 41 42 42 41 39 37 36 36 35 34 33 32 32 32 31 30 28 26 25 25 24 23 21 19 18 17 16 16 15 16 16 17 17 17 17 16 14 13 10 8 8 12 6 6 5 3 8 6 6 6 6 8 8 9 11 11 12 13 14 14 14
40 39 37 35 35 37 38 41 43 45 46 48 47 45 43 42 41 39 37 37 37 37 37 38 40 42 42 41 40 39 38 37 36 35 34 33 32 32 31 30 29 27 27 27 25 24 22 20 19 17 16 15 14 14 15 15 15 16 16 16 14 12 8 4 6 10 11 10 9 5 9 7 7 8 8 10 10 12 13 14 15 15 16 16 16
38 38 36 35 35 35 35 38 42 44 46 48 47 45 43 42 42 40 38 37 37 36 37 39 40 41 42 41 41 40 39 38 37 36 35 34 33 33 32 31 30 28 28 27 26 24 22 20 19 17 16 15 14 13 13 13 14 14 13 12 12 9 3 2 5 11 13 10 11 7 8 8 9 10 11 12 13 14 15 16 17 17 17 18 18
39 38 36 35 35 34 34 36 40 43 45 46 46 45 44 44 44 43 41 40 39 39 40 41 41 41 41 42 43 42 41 40 38 37 36 35 34 33 33 32 31 30 29 28 26 24 22 21 19 17 16 15 13 13 12 12 12 12 12 10 9 6 3 8 12 11 6 7 12 11 7 9 11 11 12 12 14 15 15 16 17 17 18 19 19
40 38 35 34 34 34 35 37 39 41 44 45 45 44 44 45 44 44 44 43 43 43 42 39 38 38 40 42 43 43 42 41 40 38 37 36 35 35 34 33 32 31 30 29 28 26 24 21 19 16 15 14 12 12 11 12 12 12 12 11 9 8 9 12 11 9 9 10 11 9 8 11 11 10 11 12 13 14 16 17 17 19 19 19 19
36 32 32 32 33 34 35 37 38 40 42 44 44 44 44 44 44 44 43 42 43 42 38 35 34 35 38 41 42 42 42 42 41 40 39 38 37 36 35 34 34 33 32 31 30 27 24 22 19 16 15 13 12 11 11 12 13 13 12 12 12 11 11 11 10 12 14 13 11 11 12 13 12 11 11 12 14 15 16 17 18 18 19 19 19
30 26 28 30 32 33 34 36 38 39 41 42 43 43 43 43 43 42 42 42 41 38 35 34 34 36 38 39 41 42 42 42 42 41 40 39 38 38 37 36 35 34 34 33 31 28 26 24 21 18 16 14 13 12 12 12 13 14 14 13 13 12 12 12 12 13 15 18 19 16 14 15 13 13 13 14 16 17 17 18 18 18 18 19 20
24 23 25 26 28 31 34 36 37 39 40 41 42 41 41 41 40 41 41 41 39 38 37 36 36 36 38 39 40 41 42 42 43 42 42 41 40 39 38 38 37 36 35 34 32 30 28 25 22 19 17 15 14 13 13 13 14 15 15 15 14 12 12 12 13 14 15 20 23 20 19 19 16 13 13 15 17 18 18 18 18 18 19 20 22
20 20 22 23 25 29 32 34 36 37 39 40 41 40 40 39 40 40 40 39 39 40 40 40 39 38 38 39 40 41 42 42 43 43 43 42 41 41 40 39 38 37 37 36 35 33 30 27 23 21 19 17 15 14 14 14 15 17 17 16 15 13 12 11 12 14 15 18 22 24 24 22 20 15 14 15 16 17 18 18 18 19 21 23 23
18 19 20 21 23 26 29 32 34 36 38 39 40 39 38 38 39 39 38 38 39 40 41 41 41 40 39 40 39 40 41 42 43 43 44 44 43 42 41 40 39 39 38 37 36 34 31 27 25 23 20 18 17 15 15 15 15 17 18 17 16 14 13 12 12 13 15 17 21 24 24 24 23 19 17 17 15 15 16 18 19 20 23 25 25
Wind_Direction
197 193 197 198 201 204 203 200 202 205 205 207 205 204 202 204 206 209 208 201 196 191 184 176 175 177 182 178 177 175 178 183 186 194 185 178 174 175 178 183 182 176 172 159 166 175 256 133 41 58 87 78 63 51 35 16 10 10 13 17 22 25 27 26 29 32 28 29 29 25 18 25 82 113 115 94 66 9 29 27 9 13 10 13 17
197 193 196 197 202 206 208 205 204 207 208 209 208 208 205 205 205 210 212 207 200 195 190 184 185 183 180 177 175 171 172 180 184 185 177 172 170 170 172 177 169 160 177 190 209 208 215 203 206 203 174 147 114 95 355 351 0 7 14 19 23 21 20 18 19 23 23 25 30 29 22 16 28 53 55 87 100 337 341 12 356 10 12 12 10
194 194 194 194 199 204 209 208 206 207 210 211 211 210 209 209 207 211 209 205 200 196 196 190 190 187 182 178 179 175 170 174 178 180 182 187 188 187 181 181 173 158 177 199 212 222 224 206 197 195 193 189 177 190 229 277 300 322 346 343 3 6 3 8 12 17 18 20 25 29 22 16 24 40 37 14 12 266 292 318 339 22 28 23 18
192 195 194 194 198 201 207 206 207 208 211 212 212 211 209 209 205 206 202 199 199 197 196 192 191 187 184 179 179 180 177 176 180 188 197 205 207 204 198 196 185 164 173 204 217 225 227 213 202 197 199 197 197 220 239 252 254 255 256 255 262 292 318 340 359 12 15 17 16 21 11 12 24 39 42 6 329 304 309 314 315 341 354 358 6
193 196 196 195 197 199 204 204 206 208 211 213 213 211 208 207 201 198 195 193 194 194 194 193 191 187 186 184 185 186 186 189 194 203 210 215 216 212 210 209 202 183 177 190 204 211 221 214 202 202 214 224 248 268 271 273 271 264 258 257 257 261 268 283 290 289 324 99 291 262 269 315 42 55 62 25 331 314 330 345 344 331 321 322 330
197 199 199 197 197 199 203 203 206 208 210 212 211 209 207 206 201 199 197 196 196 197 197 195 196 196 196 196 199 200 202 208 212 216 218 222 223 221 221 221 218 208 195 191 198 208 219 216 214 232 248 256 267 274 275 277 276 271 266 264 263 264 264 266 262 246 222 199 221 229 228 217 176 171 171 46 323 311 325 356 6 354 336 334 334
205 204 203 200 200 200 202 203 205 208 209 209 207 206 205 204 204 206 206 207 208 208 207 207 209 211 211 210 212 214 217 221 225 225 226 230 232 232 232 233 234 230 220 212 212 219 228 234 244 261 267 267 270 272 273 274 273 273 272 269 268 268 265 263 262 257 243 220 226 241 243 224 204 197 191 181 260 291 299 298 329 342 341 348 349
206 209 209 204 203 202 203 203 205 209 210 209 208 206 205 206 209 211 214 215 216 217 218 219 222 222 223 225 225 227 230 233 236 236 235 239 241 243 244 245 245 244 241 235 232 237 246 255 265 271 273 273 273 272 271 271 271 272 272 272 270 269 267 263 260 259 255 239 232 240 251 243 223 218 206 189 232 269 277 284 294 291 300 331 340
206 209 212 208 207 206 205 204 207 211 211 210 210 210 210 213 215 215 217 218 217 219 222 223 225 227 230 233 235 236 239 241 243 244 242 244 248 252 253 253 252 252 251 250 250 253 260 267 271 272 273 273 272 272 272 271 272 273 274 274 272 272 270 267 263 260 257 249 242 237 241 244 234 230 223 202 226 261 264 283 297 296 296 307 310
208 209 212 211 208 209 209 208 210 212 212 212 212 213 214 216 218 218 219 220 221 223 226 227 227 229 232 234 237 238 240 241 243 245 246 249 252 255 256 256 256 255 256 259 263 266 270 272 273 273 273 273 274 275 276 276 276 277 278 278 279 279 277 274 270 264 259 253 247 243 239 237 234 234 233 217 221 258 260 280 298 307 305 304 300
210 210 212 212 210 211 212 212 213 213 214 213 213 213 215 217 219 222 223 224 226 226 228 227 226 227 229 231 233 234 236 238 241 245 250 252 253 255 257 258 259 260 261 263 266 268 270 272 275 277 278 280 282 283 284 285 286 285 285 285 286 286 285 282 278 272 266 259 252 248 245 242 238 235 235 228 226 244 256 276 295 310 309 299 293
212 212 212 214 212 212 214 216 215 216 215 212 213 215 216 218 220 222 223 224 223 221 220 217 217 219 222 225 226 228 231 232 236 240 244 247 250 252 255 260 262 264 264 264 266 267 269 272 275 280 284 289 292 295 297 299 299 299 298 296 295 291 290 286 283 278 272 267 260 253 249 247 244 241 237 231 233 237 243 261 279 301 304 292 285
211 212 212 215 214 213 215 216 216 217 215 213 215 215 215 216 216 217 218 217 215 213 212 211 211 212 214 216 217 218 219 219 224 228 231 235 237 242 246 253 258 262 264 265 266 266 269 272 278 286 295 303 307 312 314 315 316 315 314 313 309 304 299 293 288 282 275 270 264 258 253 251 248 244 240 233 234 237 234 242 262 286 292 281 277
211 213 212 215 216 216 216 216 217 216 214 215 216 214 214 213 212 212 213 212 212 213 211 210 209 210 210 209 207 204 204 205 209 213 215 219 221 225 230 234 240 244 248 249 251 251 261 279 302 311 317 317 315 317 317 318 318 317 318 316 313 309 305 300 294 288 281 273 266 260 255 251 248 245 240 236 234 234 232 232 242 272 281 275 275
210 214 214 215 217 218 217 217 216 215 214 216 217 216 216 214 214 215 215 216 215 215 212 210 208 207 205 200 198 195 196 198 199 203 204 207 208 209 209 209 209 207 209 209 218 233 259 288 301 309 312 313 314 315 314 315 315 315 313 310 307 303 300 297 293 289 285 280 273 266 259 252 247 244 240 237 235 234 233 230 228 237 267 280 285
207 214 217 216 218 219 217 217 216 216 216 218 219 220 221 220 221 221 221 221 220 218 213 208 205 201 197 194 195 195 198 200 200 202 203 203 201 198 193 191 189 190 193 197 211 232 257 278 288 296 301 305 308 310 313 314 313 311 308 306 302 297 294 290 285 283 280 279 276 273 268 260 252 246 242 239 238 237 234 233 230 225 233 256 271
208 211 215 217 220 219 217 216 216 217 218 219 221 221 223 224 224 224 223 223 221 218 212 206 201 196 195 196 199 203 206 208 208 207 205 202 196 192 188 185 184 185 189 196 209 223 240 254 267 280 289 298 305 310 314 315 314 312 309 306 303 298 292 286 281 276 272 270 268 269 267 265 259 253 248 245 243 241 238 236 236 232 223 223 238
214 213 213 216 219 220 219 217 218 218 220 221 221 221 222 222 222 222 221 219 218 215 210 204 199 196 197 200 203 207 210 212 212 210 207 203 197 192 189 187 187 188 192 196 203 210 220 233 247 268 288 303 312 319 322 323 322 319 315 311 305 300 295 290 284 278 273 268 263 261 259 259 258 256 254 251 248 246 244 240 240 238 230 227 235
219 218 216 216 217 220 221 219 220 220 222 222 221 222 221 221 220 219 217 215 213 211 208 203 200 199 200 203 205 207 209 209 209 209 207 204 203 201 200 199 199 199 201 202 204 209 214 229 254 288 311 322 326 330 330 331 329 326 323 317 310 302 296 291 286 281 276 272 267 262 258 254 253 253 254 254 253 251 250 246 243 243 237 234 239
222 222 219 219 218 218 221 221 222 222 223 223 223 222 221 221 220 218 215 212 210 209 207 204 202 201 203 204 205 206 206 207 206 206 206 207 209 210 212 212 213 212 212 213 215 225 243 276 307 324 330 333 334 335 335 334 332 329 325 320 315 307 300 293 286 282 276 273 269 265 260 256 252 251 251 251 251 252 253 252 250 251 247 242 246
224 223 220 220 220 219 219 221 222 223 224 223 223 222 222 222 220 218 215 213 210 208 207 205 204 203 204 204 203 203 203 204 204 205 207 210 213 215 219 220 225 227 228 235 245 269 295 315 325 331 333 334 335 335 335 335 333 330 327 323 318 312 305 297 289 282 277 272 267 264 261 258 254 252 251 250 249 249 252 254 255 256 256 255 256
226 224 222 221 221 221 220 221 222 224 225 224 223 222 222 222 221 219 216 214 211 209 209 207 206 206 206 204 203 202 201 203 203 204 207 210 215 217 223 228 234 238 242 250 265 281 297 310 317 322 325 328 330 333 333 332 331 329 327 323 319 315 309 301 293 286 279 273 267 263 260 258 257 255 254 254 253 251 250 251 253 255 257 259 261
233 230 228 226 224 223 222 222 223 224 225 225 224 223 223 222 222 221 218 215 212 211 210 209 209 208 208 206 204 203 201 202 202 203 207 209 213 217 222 227 232 237 244 253 265 276 288 297 306 313 318 323 327 329 329 329 328 326 325 322 318 314 309 303 296 289 282 277 271 265 261 258 256 256 256 257 257 255 251 249 250 252 254 256 260
245 241 235 231 229 227 225 224 224 225 226 226 225 224 224 223 223 222 220 216 213 212 210 210 211 210 210 209 207 206 203 203 204 205 208 212 215 218 221 225 231 236 245 255 267 279 288 296 303 310 316 322 325 326 327 326 326 325 323 320 317 314 310 305 299 292 286 281 276 270 265 260 257 256 256 257 258 257 254 249 247 246 248 250 253
253 246 240 237 235 233 230 227 225 225 226 226 226 226 225 225 225 224 222 219 215 212 211 211 212 212 212 211 211 209 209 207 207 210 212 218 222 226 229 232 237 243 254 266 278 287 294 300 306 312 318 322 323 324 324 324 323 323 321 319 317 315 312 307 302 296 290 285 280 275 270 266 263 260 259 258 259 259 257 254 249 246 244 244 246
253 249 247 245 241 236 234 231 229 227 227 227 227 227 227 227 228 227 225 222 218 215 214 213 213 213 213 214 214 212 213 210 210 213 217 223 227 232 236 239 245 255 266 278 288 295 300 305 310 313 317 318 319 319 319 320 320 320 320 319 318 316 313 309 305 300 294 289 284 279 275 270 266 263 261 260 260 261 261 260 257 252 249 247 247
256 256 252 249 245 240 237 234 232 231 229 228 227 227 228 229 230 229 228 226 222 219 216 216 215 215 216 217 216 216 216 214 214 216 221 225 229 234 238 243 250 261 272 281 288 293 298 302 305 308 310 311 312 313 314 315 316 317 319 319 319 317 314 309 305 301 297 293 288 283 279 274 269 265 262 260 260 261 262 263 262 259 258 256 254
259 257 254 252 250 245 241 238 235 234 232 230 229 228 229 229 230 230 229 228 225 223 220 218 217 217 218 218 217 217 217 218 218 219 223 226 231 235 239 245 253 262 270 277 283 287 290 294 297 300 304 306 307 308 309 311 312 314 316 318 318 317 313 308 304 301 298 294 290 286 282 277 272 268 263 259 257 258 260 262 263 263 263 264 263
259 258 255 255 254 249 245 242 239 237 235 233 231 230 230 229 230 230 230 229 228 225 222 221 220 219 219 220 218 218 220 220 220 222 225 228 232 237 241 247 252 259 265 271 275 279 282 285 289 294 298 302 303 305 306 308 310 312 315 316 318 317 313 309 305 301 298 295 291 287 284 279 274 270 265 259 257 257 260 261 262 263 264 266 268
261 259 256 255 255 252 248 246 243 240 238 236 233 232 231 231 231 232 231 230 229 226 224 223 222 222 222 222 221 221 222 221 221 224 226 230 234 239 243 246 250 254 260 265 269 273 277 280 284 289 294 298 301 303 305 307 308 311 314 316 317 317 315 312 308 303 299 296 292 288 283 278 273 268 262 259 258 258 261 263 264 264 263 265 268
260 258 257 255 253 252 251 249 246 243 240 238 236 234 234 234 234 233 232 231 230 227 226 225 224 224 224 224 224 223 223 222 223 225 227 231 236 240 243 244 247 251 255 261 265 268 272 276 282 286 292 297 300 302 304 306 309 312 314 317 318 318 316 314 311 307 301 297 293 288 281 274 265 259 257 255 254 255 258 261 261 258 258 261 264
260 260 259 255 253 253 252 250 248 246 244 241 239 237 236 235 235 234 233 233 231 229 228 227 226 225 225 224 224 224 224 224 225 227 229 233 237 239 241 242 245 248 252 257 260 264 268 274 279 286 292 296 300 302 304 306 309 312 315 317 319 318 316 314 311 307 302 297 292 285 276 264 255 250 249 248 247 248 250 254 252 246 245 249 253
262 263 260 257 256 254 252 251 249 247 248 246 242 239 238 237 236 235 234 233 231 231 230 229 229 227 226 224 224 225 226 228 229 230 231 233 236 239 240 242 244 247 250 253 257 261 265 272 278 284 291 296 300 302 304 307 309 312 315 317 318 317 315 313 311 307 302 296 287 276 264 252 243 239 239 239 238 238 239 243 243 242 242 244 246
263 261 259 258 257 255 253 251 249 249 249 248 246 242 240 238 237 236 234 233 232 232 232 231 230 228 228 226 225 227 228 230 230 231 231 231 233 236 239 241 243 246 248 251 254 257 263 269 276 283 290 295 299 303 306 308 309 311 313 315 316 315 314 313 309 306 300 290 277 261 243 229 222 223 229 229 229 229 231 235 238 243 244 245 247
263 260 259 258 257 255 253 252 251 250 249 249 249 246 243 240 239 238 235 234 233 233 232 231 231 230 229 228 227 229 229 230 230 231 231 230 233 235 238 239 242 244 246 249 251 255 261 267 275 282 290 296 299 302 303 304 307 309 311 312 313 314 314 312 308 304 294 276 255 232 214 209 211 219 224 222 228 230 228 232 238 244 245 246 248
266 265 262 258 255 254 253 254 252 251 250 249 249 248 245 241 240 239 237 235 234 233 233 232 232 231 230 229 229 229 230 230 230 231 230 231 233 235 237 239 241 243 245 248 250 254 259 265 273 282 291 298 301 301 301 302 305 307 309 311 312 313 313 310 306 298 282 256 225 210 208 213 218 223 224 222 230 234 233 238 243 247 248 250 255
268 268 265 261 257 254 252 252 252 252 251 248 247 246 246 243 240 240 239 236 235 234 233 233 232 232 232 230 230 229 230 230 230 231 231 232 233 235 237 238 240 242 243 245 248 252 257 263 272 281 289 296 301 303 303 303 304 305 308 309 311 312 311 308 302 290 267 239 221 234 237 226 220 218 226 229 237 242 247 259 263 264 267 278 288
265 267 267 264 260 256 252 251 252 252 251 248 245 244 244 243 240 239 239 237 236 235 234 233 232 232 232 231 230 230 229 230 230 231 231 232 232 233 235 237 239 241 242 244 246 250 254 260 268 277 285 293 299 303 304 304 304 304 305 308 310 309 308 306 296 277 253 235 244 272 266 245 231 224 258 274 294 300 292 289 290 301 313 320 319
265 265 265 265 261 257 252 249 250 250 250 247 244 242 241 241 238 236 237 236 235 234 233 232 232 232 232 232 231 230 230 230 231 231 232 232 231 232 234 236 238 240 241 242 244 248 252 257 264 273 281 289 297 301 303 304 303 304 306 310 310 308 308 302 287 262 239 238 262 270 276 340 337 324 324 320 323 321 316 317 321 330 335 335 331
268 265 263 262 261 258 254 249 247 248 247 244 241 239 238 237 236 235 234 234 233 233 233 232 231 231 231 231 231 230 230 230 231 231 231 231 232 233 234 235 236 238 240 241 242 245 248 253 259 268 278 288 296 300 303 303 303 303 306 312 311 310 307 297 273 238 228 260 265 250 295 337 339 334 334 335 337 337 339 344 346 347 345 342 339
270 267 262 260 259 258 255 251 246 245 244 243 240 239 238 236 235 235 234 233 232 232 231 230 229 228 229 230 230 230 230 230 230 231 231 231 231 232 233 234 236 237 237 237 238 240 245 250 256 265 275 286 294 300 304 304 304 301 302 306 311 316 311 294 259 220 233 306 247 229 323 328 331 330 335 342 345 348 352 356 357 355 352 348 344
273 271 267 264 260 256 253 250 246 244 245 245 242 240 240 240 240 241 240 235 233 233 232 231 228 227 227 227 228 229 229 230 230 230 231 231 231 232 233 234 235 235 234 234 235 239 243 247 254 263 272 283 292 299 304 304 305 305 307 308 311 321 314 295 247 214 257 315 221 270 335 333 334 333 337 344 350 356 357 357 355 352 350 348 346
274 273 270 266 260 255 251 248 245 245 245 245 243 241 241 241 241 242 240 236 233 234 233 232 230 228 227 227 228 228 228 229 230 230 231 231 232 232 234 234 234 234 234 235 237 238 241 245 252 261 270 281 289 295 300 302 304 305 311 314 316 324 322 297 215 226 285 286 228 289 340 343 345 342 339 343 350 355 357 355 351 348 346 345 345
273 271 268 264 259 254 250 246 245 244 244 244 242 240 238 237 237 236 235 233 232 233 232 232 231 229 228 227 228 228 228 229 229 230 230 231 231 232 233 234 234 234 234 236 237 238 241 245 251 259 268 277 284 290 294 296 299 301 306 313 318 326 330 244 265 284 295 259 232 284 337 348 349 346 344 348 351 351 353 351 349 348 346 345 345
273 271 269 267 262 257 252 247 244 243 243 242 240 236 233 232 232 230 228 227 228 229 230 230 229 228 228 227 227 228 228 229 229 230 230 231 231 231 232 233 232 233 233 234 235 237 240 244 250 258 266 274 280 286 290 292 294 297 299 303 309 313 283 292 303 304 291 249 259 280 311 337 340 342 347 349 350 349 347 347 347 348 347 346 346
275 275 273 270 264 258 252 247 244 243 242 241 238 235 232 231 230 229 227 226 226 228 230 231 231 229 229 228 227 227 228 228 229 230 230 230 230 231 231 231 231 232 232 232 232 235 239 243 248 255 263 272 279 284 290 294 295 294 294 293 292 289 289 302 309 304 296 284 279 281 296 317 324 332 343 345 347 348 346 346 348 348 349 348 348
283 280 273 266 259 254 250 247 244 243 242 239 237 234 232 231 231 232 233 232 232 234 235 235 235 234 232 230 228 228 228 228 229 230 230 230 230 230 230 230 230 230 230 231 232 234 237 240 244 250 260 269 276 284 291 296 298 296 294 292 289 287 291 301 305 306 305 298 293 297 304 314 321 325 335 343 347 348 346 346 348 350 351 349 349
287 279 269 261 255 250 247 246 243 242 241 239 237 235 233 232 232 233 235 236 238 240 240 238 238 235 233 232 230 229 228 228 229 230 230 230 230 230 230 229 229 229 230 229 231 233 234 236 241 247 256 264 273 282 290 296 298 297 294 292 291 291 293 300 305 307 306 303 304 308 311 317 322 323 332 345 350 348 345 345 348 351 351 350 351
283 275 266 258 253 248 245 243 241 240 240 239 237 236 235 234 234 234 235 236 238 239 239 238 239 237 234 233 231 230 230 229 229 230 230 230 230 230 229 229 229 229 229 229 230 231 232 235 238 243 249 258 268 278 286 293 295 294 293 291 289 290 293 299 304 305 306 306 308 312 318 319 317 322 336 344 348 349 345 345 350 352 352 352 353
278 270 260 252 246 243 241 241 239 239 238 238 236 235 234 233 233 234 235 236 235 235 235 236 237 238 237 235 233 231 230 230 230 230 231 231 230 230 229 229 229 229 229 229 230 230 232 233 235 239 245 252 261 271 281 287 290 290 289 287 285 284 286 289 292 298 302 303 305 311 318 321 319 322 334 339 343 346 343 344 348 349 350 349 349
272 260 249 243 239 236 237 238 238 238 237 236 235 234 233 233 233 234 235 236 235 235 235 235 236 237 237 236 235 233 232 232 232 232 232 232 231 230 229 228 228 228 229 229 230 231 231 232 234 237 242 248 255 264 273 279 282 284 284 283 282 281 280 283 286 292 296 298 303 308 313 316 317 322 330 334 340 341 338 340 344 345 346 345 346